User: anonymous   Login
Location: Melbourne
(37.8170°S, 144.9670°E)
Time: 06:17:17
(UTC+10:00)
Language:

Explorer 11/Cluster Stage 4 - Orbit

View from above orbital plane
View from above orbital plane
View from above satellite
View from above satellite

Ground track
Ground track

The orbit data is extracted from the following two-line orbital elements,

1 00107U 61013A   16210.49380296  .00000352  00000-0  29785-4 0  9995
2 00107  28.7864 275.9024 0551010  78.3353 287.8501 14.07929025765407
Epoch (UTC): 28 July 2016 11:51:04
Eccentricity: 0.0551010
inclination: 28.7864°
perigee height: 467 km
apogee height: 1265 km
right ascension of ascending node: 275.9024°
argument of perigee: 78.3353°
revolutions per day: 14.07929025
mean anomaly at epoch: 287.8501°
orbit number at epoch: 76540

The dashed part of the orbit path shows where the satellite is in the earth's shadow,  

DLR